SCP
0 0 0 0 0 0 0 0 0 0 0 0 0 0 0 0 0 0 0 0 0 0 0 0 0 0 0 0 0 0 0 0 0 0 0 0 0 0 0 0 0 0 0
0 0 0 0 0 0 0 0 0 0 0 0 0 0 0 0 0 0 0 0 0 0 0 0 0 0 0 0 0 0 0 0 0 0 0 0 0 0 0 0 0 0 0
0 0 0 0 0 0 0 0 0 0 0 0 0 0 0 0 0 0 0 0 0 0 0 0 0 0 0 0 0 0 0 0 0 0 0 0 0 0 0 0 0 0 0
0 0 0 0 0 0 0 0 0 0 0 0 0 0 0 0 0 0 0 0 0 0 0 0 0 0 0 0 0 0 0 0 0 0 0 0 0 0 0 0 0 0 0
0 0 0 0 0 0 0 0 0 0 0 0 0 0 0 0 0 0 0 0 0 0 0 0 0 0 0 0 0 0 0 0 0 0 0 0 0 0 0 0 0 0 0
0 0 0 0 0 0 0 0 0 0 0 0 0 0 0 0 0 0 0 0 0 0 0 0 0 0 0 0 0 0 0 0 0 0 0 0 0 0 0 0 0 0 0
0 0 0 0 0 0 0 0 0 0 0 0 0 0 0 0 0 0 0 0 0 0 0 0 0 0 0 0 0 0 0 0 0 0 0 0 0 0 0 0 0 0 0
0 0 0 0 0 0 0 0 0 0 0 0 0 0 0 0 0 0 0 0 0 0 0 0 0 0 0 0 0 0 0 0 0 0 0 0 0 0 0 0 0 0 0
0 0 0 0 0 0 0 0 0 0 0 0 0 0 0 0 0 0 0 0 0 0 0 0 0 0 0 0 0 0 0 0 0 0 0 0 0 0 0 0 0 0 0
0 0 0 0 0 0 0 0 0 0 0 0 0 0 0 0 0 0 0 0 0 0 0 0 0 0 0 0 0 0 0 0 0 0 0 0 0 0 0 0 0 0 0
0 0 0 0 0 0 0 0 0 0 0 0 0 0 0 0 0 0 0 0 0 0 0 0 0 0 0 0 0 0 0 0 0 0 0 0 0 0 0 0 0 0 0
0 0 0 0 0 0 0 0 0 0 0 0 0 0 0 0 0 0 0 0 0 0 0 0 0 0 0 0 0 0 0 0 0 0 0 0 0 0 0 0 0 0 0
0 0 0 0 0 0 0 0 0 0 0 0 0 0 0 0 0 0 0 0 0 0 0 0 0 0 0 0 0 0 0 0 0 0 0 0 0 0 0 0 0 0 0
0 0 0 0 0 0 0 0 0 0 0 0 0 0 0 0 0 0 0 0 0 0 0 0 0 0 0 0 0 0 0 0 0 0 0 0 0 0 0 0 0 0 0
0 0 0 0 0 0 0 0 0 0 0 0 0 0 0 0 0 0 0 0 0 0 0 0 0 0 0 0 0 0 0 0 0 0 0 0 0 0 0 0 0 0 0
0 0 0 0 0 0 0 0 0 0 0 0 0 0 0 0 0 0 0 0 0 0 0 0 0 0 0 0 0 0 0 0 0 0 0 0 0 0 0 0 0 0 0
0 0 0 0 0 0 0 0 0 0 0 0 0 0 0 0 0 0 0 0 0 0 0 0 0 0 0 0 0 0 0 0 0 0 0 0 0 0 0 0 0 0 0
0 0 0 0 0 0 0 0 0 0 0 0 0 0 0 0 0 0 0 0 0 0 0 0 0 0 0 0 0 0 0 0 0 0 0 0 0 0 0 0 0 0 0
0 0 0 0 0 0 0 0 0 0 0 0 0 0 0 0 0 0 0 0 0 0 0 0 0 0 0 0 0 0 0 0 0 0 0 0 0 0 0 0 0 0 0
0 0 0 0 0 0 0 0 0 0 0 0 0 0 0 0 0 0 0 0 0 0 0 0 0 0 0 0 0 0 0 0 0 0 0 0 0 0 0 0 0 0 0
0 0 0 0 0 0 0 0 0 0 0 0 0 0 0 0 0 0 0 0 0 0 0 0 0 0 0 0 0 0 0 0 0 0 0 0 0 0 0 0 0 0 0
0 0 0 0 0 0 0 0 0 0 0 0 0 0 0 0 0 0 0 0 0 0 0 0 0 0 0 0 0 0 0 0 0 0 0 0 0 0 0 0 0 0 0
0 0 0 0 0 0 0 0 0 0 0 0 0 0 0 0 0 0 0 0 0 0 0 0 0 0 0 0 0 0 0 0 0 0 0 0 0 0 0 0 0 0 0
0 0 0 0 0 0 0 0 0 0 0 0 0 0 0 0 0 0 0 0 0 0 0 0 0 0 0 0 0 0 0 0 0 0 0 0 0 0 0 0 0 0 0
0 0 0 0 0 0 0 0 0 0 0 0 0 0 0 0 0 0 0 0 0 0 0 0 0 0 0 0 0 0 0 0 0 0 0 0 0 0 0 0 0 0 0
0 0 0 0 0 0 0 0 0 0 0 0 0 0 0 0 0 0 0 0 0 0 0 0 0 0 0 0 0 0 0 0 0 0 0 0 0 0 0 0 0 0 0
Wind_Speed
6 7 15 14 14 13 13 13 13 13 12 12 12 12 12 12 13 13 13 13 13 14 14 14 14 14 14 14 14 15 15 16 16 16 16 16 16 16 16 15 14 9 16
10 9 16 15 15 14 14 13 13 13 12 12 12 12 12 11 12 12 12 12 13 13 13 13 13 14 13 13 13 13 14 15 15 15 15 13 13 14 14 14 14 10 15
12 10 13 16 15 14 14 13 13 12 12 12 11 11 11 11 11 11 11 12 12 12 12 12 12 12 12 12 12 12 13 13 13 13 13 7 7 12 13 13 13 13 13
13 10 10 16 16 15 14 14 13 13 12 11 11 11 10 10 10 11 11 11 11 11 11 11 11 11 11 11 11 11 11 11 12 12 6 6 6 10 11 11 11 11 11
11 9 12 17 16 16 15 14 13 13 12 12 11 11 10 10 10 10 10 10 10 10 10 10 10 10 10 10 10 10 10 10 11 8 5 5 5 8 10 9 9 9 9
10 9 12 18 17 16 15 14 14 13 12 11 11 10 10 10 9 9 9 9 8 8 9 9 9 9 8 8 8 9 9 9 8 4 4 4 4 7 8 8 8 8 8
11 9 12 18 18 17 15 15 14 13 12 11 11 10 9 9 8 8 8 7 7 7 7 7 7 7 7 7 7 7 8 8 5 3 2 3 4 7 7 7 7 8 7
14 11 11 18 18 17 16 15 14 14 13 12 10 9 9 8 8 7 6 6 5 5 5 5 6 6 6 6 6 7 7 7 4 3 2 2 5 6 7 7 7 8 8
12 11 9 10 12 16 16 15 14 14 13 12 11 9 9 8 7 6 6 5 4 4 4 4 4 4 5 6 6 6 7 7 3 1 2 2 4 6 7 8 8 8 8
10 10 9 8 8 8 9 13 14 13 12 12 10 9 7 7 6 6 5 4 3 2 2 2 3 4 5 5 6 7 7 6 3 2 2 3 5 7 8 8 9 9 9
9 8 9 9 8 7 7 10 10 11 11 10 8 8 6 3 2 3 3 4 3 1 1 2 3 4 4 5 6 7 5 2 2 2 2 5 6 7 8 9 9 10 10
12 11 9 10 9 8 7 6 5 5 5 5 4 5 3 3 2 3 3 3 3 1 1 2 3 4 4 3 5 6 2 2 2 2 3 6 6 8 9 9 9 10 10
14 13 11 11 10 9 6 5 4 3 4 4 5 5 4 3 2 2 1 1 1 1 1 2 3 2 2 2 2 2 2 2 1 2 3 6 7 9 9 9 9 10 10
12 14 13 12 11 10 8 6 5 4 4 4 5 5 4 3 2 2 1 1 1 0 1 1 1 2 2 2 2 2 2 2 1 1 3 6 7 8 9 9 9 10 10
13 14 13 13 12 11 9 7 7 6 6 6 5 5 5 4 3 3 2 2 2 1 1 1 1 1 2 2 2 2 3 3 3 2 2 6 6 7 8 9 10 10 11
13 14 13 14 13 12 10 8 7 7 6 5 5 6 7 5 4 4 3 2 2 2 1 1 0 1 1 2 3 3 3 3 3 3 2 3 5 6 7 8 9 10 11
13 13 13 14 13 13 11 10 8 7 7 6 6 6 7 6 5 4 3 2 2 2 1 1 0 1 1 2 3 3 3 3 3 3 2 2 2 4 6 7 9 10 11
12 13 13 12 13 13 11 9 7 7 7 6 5 5 7 7 6 5 3 3 2 2 1 1 0 1 1 2 2 3 3 3 4 3 2 1 1 2 4 7 8 10 11
14 14 13 12 13 13 11 8 7 7 7 6 6 5 6 7 7 5 4 3 3 2 1 1 1 1 1 2 3 3 3 3 3 3 2 1 1 1 1 5 8 10 11
12 13 13 12 12 11 8 6 5 5 5 5 6 6 7 6 7 5 4 4 3 2 2 1 1 0 0 1 3 3 4 3 2 1 1 1 1 2 2 3 3 6 11
10 11 12 12 12 10 8 7 7 6 5 5 6 7 8 7 7 6 4 4 4 3 3 3 2 1 0 1 2 4 4 3 2 1 2 1 2 2 3 3 3 3 4
11 12 12 13 13 12 9 8 5 5 4 5 5 6 8 8 7 6 6 5 5 3 3 3 2 2 0 1 1 1 4 5 4 3 2 1 2 2 3 4 4 4 4
11 13 12 13 13 12 10 6 4 3 2 3 4 5 6 8 8 7 7 6 5 5 4 4 4 4 2 1 1 3 1 3 4 4 3 2 2 2 3 3 4 5 5
11 10 11 12 11 11 11 10 10 8 7 7 5 5 6 7 8 8 7 7 6 5 5 5 4 3 4 2 1 1 3 3 2 4 4 3 3 3 4 4 5 5 5
9 9 9 10 10 10 11 12 11 9 7 4 4 6 6 6 7 7 7 6 6 5 5 5 4 4 4 4 3 2 2 2 3 3 5 5 4 4 4 5 4 4 5
6 7 8 9 10 10 11 11 12 11 9 7 7 7 6 4 5 7 7 6 6 5 6 6 5 6 4 4 3 3 3 3 3 4 5 6 6 4 4 4 4 4 4
Wind_Direction
166 172 156 150 143 137 132 123 116 111 105 101 96 91 86 84 83 81 77 75 72 69 68 67 66 64 63 62 62 61 60 60 56 54 53 54 55 55 54 52 49 40 47
157 165 155 151 145 140 135 127 121 115 111 106 101 96 90 86 84 83 79 77 74 71 69 68 67 66 64 63 62 61 60 62 58 56 50 43 49 53 51 49 48 46 46
150 158 155 152 147 142 138 133 127 122 117 111 106 101 96 92 89 87 83 81 77 74 71 69 68 67 66 63 62 60 58 60 59 55 44 23 25 51 50 47 46 45 44
151 152 154 153 149 145 142 137 133 128 123 118 112 106 101 98 95 92 88 84 80 76 73 70 68 67 65 61 59 56 55 57 60 52 36 19 8 43 47 45 43 42 41
149 150 156 155 152 149 147 143 139 134 129 124 118 112 107 103 100 95 91 86 82 77 73 70 67 64 61 58 55 52 53 55 56 49 32 19 2 32 40 40 38 37 36
150 152 159 157 154 152 150 147 145 140 137 132 126 120 114 109 104 99 94 89 83 79 75 73 68 62 56 53 51 47 47 51 51 43 31 12 352 21 29 28 25 25 23
154 158 162 160 158 156 153 151 150 147 144 140 135 130 124 118 112 108 102 95 88 81 76 72 65 57 51 48 44 39 38 42 51 37 21 356 348 13 16 14 10 8 7
157 160 164 165 162 160 159 157 156 153 150 148 144 140 135 132 129 124 116 107 96 86 79 70 59 49 42 38 33 28 26 27 36 22 354 325 346 359 2 0 356 353 351
158 160 163 165 164 164 165 165 163 160 157 155 153 150 147 145 143 139 133 126 110 92 76 63 49 35 28 20 13 9 5 9 29 330 294 294 329 345 351 351 345 341 338
160 164 161 160 159 161 164 167 166 165 165 164 161 158 157 157 151 151 149 149 138 117 75 41 24 15 6 356 350 348 351 1 358 327 290 286 317 334 341 343 340 337 335
168 171 165 162 161 159 162 170 169 170 172 168 165 165 158 148 146 152 172 179 170 151 64 13 1 354 350 341 335 334 345 345 326 297 274 291 314 327 334 336 336 334 332
178 180 174 170 167 164 170 165 164 166 166 159 159 163 154 155 175 179 187 186 176 168 338 336 339 346 350 336 329 335 335 323 317 288 280 301 317 326 331 333 334 333 331
180 180 180 178 173 171 170 165 166 162 160 163 169 168 161 160 174 173 167 204 230 320 341 338 346 343 337 319 318 323 321 322 318 303 303 314 327 332 332 334 336 335 333
179 185 182 180 177 177 173 173 172 169 169 173 179 172 160 162 167 166 170 185 190 219 256 304 311 321 323 317 314 323 333 333 322 304 299 321 331 335 337 338 339 338 335
183 186 183 181 179 178 174 177 177 177 178 181 180 175 166 167 174 175 182 181 194 199 205 252 300 327 333 334 341 347 338 332 328 323 311 321 333 337 337 339 344 343 340
188 187 183 182 181 177 178 179 179 180 180 179 181 180 174 173 175 174 181 184 197 195 195 190 229 340 337 341 342 340 327 326 322 320 310 320 332 339 343 345 346 345 342
189 184 182 183 180 179 180 181 179 180 178 179 183 180 177 174 174 174 175 181 197 190 174 152 45 35 7 356 338 328 324 323 320 314 313 308 320 336 343 348 348 347 344
186 183 184 182 180 181 180 180 179 178 177 180 179 178 178 176 172 169 171 185 187 169 156 148 105 43 357 339 319 313 316 316 315 307 313 318 328 340 343 348 348 347 343
188 183 182 180 180 182 178 176 176 175 179 180 178 179 182 178 173 168 177 187 174 156 156 159 116 139 298 314 305 303 311 313 310 318 330 341 351 354 346 348 349 345 339
188 184 182 180 180 176 172 166 168 174 182 180 182 185 181 179 177 172 176 180 165 154 163 155 151 128 222 289 312 318 313 315 318 324 324 353 360 10 7 354 346 337 338
183 182 182 181 180 173 173 175 176 185 187 187 191 188 184 182 179 176 175 176 171 174 182 173 155 154 286 354 9 336 326 329 344 340 348 355 356 3 5 348 332 324 322
186 186 185 185 183 182 183 180 177 171 181 189 190 192 190 185 183 182 180 181 177 173 174 174 158 152 201 87 107 21 342 337 334 337 330 325 328 349 346 334 322 317 308
190 190 189 188 185 185 177 159 140 131 138 179 198 198 197 190 188 185 185 181 180 176 184 190 177 168 187 217 163 154 162 262 302 309 302 302 311 320 311 306 306 306 304
198 192 190 187 185 182 174 173 173 181 191 197 191 193 196 195 192 189 186 185 186 184 188 194 185 175 166 196 220 207 195 183 212 301 305 297 297 291 286 292 297 293 295
194 189 189 185 187 183 182 184 187 194 196 180 178 188 197 199 197 193 188 187 189 190 192 190 184 185 181 184 190 193 209 217 201 218 278 296 297 271 264 268 273 277 284
189 186 184 185 191 187 187 189 193 195 187 179 187 194 199 201 203 201 192 191 192 192 195 197 193 192 196 194 195 190 187 197 209 209 248 275 283 276 263 257 258 261 267